Wind_Speed
57 56 55 53 51 50 48 46 44 42 40 39 40 41 41 42 41 40 39 38 36 35 34 32 31 30 30 29 29 29 28 27 26 25 25 25 25 24 24 23 23 23 23 23 23 23 24 25 25 24 25 26 27 27 25 24 23 22 22 22 22 21 21 20 20 18 16 15 15 16 16 17 16 15 14 14 14 14 16 17 18 18 17 17 16
58 57 55 54 53 50 48 46 44 43 41 41 41 41 42 42 42 42 41 40 38 37 36 35 33 32 32 31 30 30 30 29 28 27 26 26 26 26 25 25 24 24 25 25 25 24 24 25 26 25 26 27 27 28 27 26 25 23 22 22 22 22 21 20 20 19 18 16 16 16 16 16 16 14 14 14 14 15 17 18 18 18 18 18 18
58 57 55 55 53 51 49 47 45 44 43 42 41 41 42 42 42 43 42 41 40 39 38 37 35 34 33 32 32 31 32 32 31 29 28 27 27 27 26 26 25 25 26 26 26 26 26 26 26 26 27 28 28 28 27 27 26 25 23 22 22 21 20 20 20 20 19 17 16 16 16 16 15 14 13 14 15 16 17 18 19 19 20 20 20
57 57 56 55 53 51 50 48 47 45 44 43 42 41 42 42 43 43 42 42 41 40 39 38 37 36 35 34 33 33 33 33 33 32 30 28 28 28 27 27 26 26 27 27 28 27 27 27 27 26 27 28 29 29 28 28 26 25 24 23 22 21 20 20 20 20 20 19 17 16 15 15 15 14 14 15 15 16 18 19 20 21 21 21 20
56 57 56 55 54 53 51 50 48 47 45 44 43 41 41 42 43 43 43 43 42 41 40 39 39 38 37 36 35 34 34 34 34 33 31 30 29 29 29 28 27 27 28 28 29 29 29 29 28 27 27 28 29 30 30 29 27 26 25 24 24 23 23 23 22 22 22 22 19 16 15 15 15 15 15 16 16 18 19 21 23 24 23 21 20
56 56 56 55 55 54 53 51 50 48 46 45 43 42 41 42 42 43 43 43 42 42 41 41 40 39 39 38 37 36 35 35 35 34 33 31 30 31 31 30 29 29 29 29 29 30 30 30 28 28 28 28 29 29 29 29 28 26 26 25 25 25 26 26 25 24 25 24 22 19 16 16 17 17 16 17 19 21 22 24 25 25 24 22 21
56 56 56 55 55 54 53 52 50 48 46 44 44 43 42 42 42 42 43 42 42 42 42 42 41 40 40 40 39 38 37 36 36 36 34 33 32 32 32 32 31 30 29 30 30 31 32 31 29 29 30 29 29 29 28 28 28 28 27 27 27 27 27 27 26 26 26 24 23 21 19 19 19 19 18 18 20 23 25 26 26 26 24 22 22
56 55 55 56 56 55 54 52 51 49 46 44 44 43 43 43 42 42 43 43 43 42 42 42 41 41 41 41 41 39 39 38 38 37 36 35 34 33 33 33 32 31 30 30 30 31 32 31 30 30 30 30 30 29 28 28 28 28 28 28 26 25 26 26 26 26 25 24 22 22 22 21 20 20 19 20 21 24 26 27 28 28 25 22 22
56 56 56 56 56 55 54 53 51 50 48 46 45 44 44 43 43 43 43 43 43 42 42 42 42 42 42 42 42 41 41 40 40 39 38 37 35 34 34 33 33 32 31 31 30 31 31 31 31 31 31 31 30 30 29 28 28 27 27 27 25 24 25 26 26 26 24 23 22 22 22 21 20 20 22 22 23 25 27 27 27 26 23 22 23
56 56 56 56 56 55 54 53 52 51 50 48 47 45 44 44 44 44 43 43 43 42 42 42 43 43 43 43 43 43 43 42 41 40 40 39 37 36 35 34 33 32 32 31 31 31 30 30 31 32 31 31 30 30 30 30 29 27 26 25 25 25 26 27 27 25 23 23 22 21 22 22 20 21 25 25 25 26 27 27 26 24 22 23 25
56 57 57 56 55 55 54 53 52 52 51 50 49 47 45 44 44 44 44 44 43 43 43 43 43 43 43 43 44 44 44 43 42 41 41 40 38 37 36 35 33 33 32 32 32 32 30 29 30 31 31 31 30 29 29 30 30 28 26 25 25 25 26 27 27 26 25 25 24 22 22 23 22 23 26 26 26 26 27 27 26 24 23 24 27
56 56 56 55 55 54 54 53 53 52 52 51 50 48 46 45 45 45 45 45 44 43 43 44 43 43 43 44 44 44 44 43 43 42 41 40 38 37 36 35 34 33 33 32 32 32 31 29 29 30 30 30 30 29 29 30 30 29 27 25 25 26 26 27 27 28 27 26 26 24 24 24 22 22 24 26 27 27 27 26 25 25 24 25 27
55 56 56 55 54 54 54 53 53 52 52 51 50 49 48 47 46 46 46 46 45 44 44 43 43 44 44 45 44 44 44 43 43 42 41 40 38 36 36 35 34 34 33 31 31 33 32 29 28 29 28 28 28 28 28 29 29 29 27 25 26 27 27 27 28 28 28 28 27 25 24 24 23 21 22 25 28 28 27 26 25 25 25 25 26
54 55 55 55 54 54 53 53 53 52 52 52 51 50 50 48 47 47 46 46 46 45 45 44 43 44 44 44 43 43 43 43 43 42 41 39 36 35 35 35 34 34 32 31 29 30 31 29 27 27 26 26 27 27 26 27 29 29 28 27 27 28 28 28 28 29 31 30 29 26 24 23 23 22 22 25 27 27 26 26 25 25 25 25 26
53 54 54 54 54 54 53 53 53 52 52 52 52 51 50 49 48 47 47 47 46 45 45 44 43 44 44 43 43 43 43 43 43 42 41 38 35 33 33 34 34 33 32 31 28 27 28 29 28 26 25 25 26 25 24 25 26 28 29 28 28 29 30 30 29 31 33 31 28 26 23 21 21 22 23 24 25 25 25 25 24 25 25 26 27
53 53 53 54 54 54 54 53 53 53 52 52 52 52 51 50 49 48 48 48 47 47 46 45 44 44 43 43 43 43 43 43 42 41 40 36 33 32 32 33 34 34 32 31 29 26 26 27 26 26 25 24 25 25 24 23 24 27 28 28 28 31 32 31 31 33 33 28 24 25 23 21 21 22 23 24 24 24 24 24 24 25 26 28 29
53 53 53 54 54 54 54 53 53 53 53 53 53 52 51 50 49 49 49 49 48 48 48 46 45 44 43 42 42 42 42 42 41 40 37 33 31 31 31 32 33 33 31 29 28 28 27 26 25 25 24 24 24 25 25 24 23 24 26 27 30 32 33 34 33 29 26 24 23 24 23 22 22 22 22 23 24 24 25 25 25 26 27 28 28
52 52 53 53 53 54 54 54 53 53 53 54 54 52 51 51 50 50 50 49 49 48 47 46 45 43 43 42 41 41 41 40 38 37 34 31 30 30 30 31 32 31 30 28 27 27 27 26 25 26 25 25 25 25 24 22 20 22 25 25 25 25 27 31 30 23 20 22 23 24 24 23 22 22 23 24 25 25 25 26 26 26 25 24 22
50 51 52 52 53 54 54 54 54 53 54 54 53 52 51 50 50 50 50 49 48 47 46 46 45 44 43 42 40 40 40 38 36 35 31 29 29 30 30 30 29 28 27 27 26 24 23 24 27 28 26 25 25 24 22 19 18 20 21 18 15 16 17 21 21 18 18 20 22 23 24 23 22 22 23 24 25 25 26 26 25 23 21 19 19
47 48 49 51 53 54 55 55 54 54 54 54 53 52 51 51 50 50 49 49 48 46 45 45 45 44 43 42 41 40 38 36 35 33 30 28 29 29 29 28 26 24 24 24 24 22 22 24 27 27 25 23 23 21 19 17 17 19 18 15 14 13 12 14 16 16 18 19 20 21 21 20 20 21 22 23 24 24 23 21 19 18 17 18 19
44 45 48 51 53 54 54 55 55 54 53 52 52 52 51 51 50 50 49 48 47 46 45 45 46 45 43 42 40 38 36 34 33 31 29 29 29 28 27 24 22 21 21 22 22 21 22 24 24 23 21 20 19 18 17 17 18 19 19 16 13 9 10 13 15 16 18 18 17 17 16 17 18 19 21 21 20 18 15 14 14 15 16 18 21
44 46 48 51 52 52 52 53 54 54 53 53 53 53 52 51 50 49 48 47 47 46 46 45 46 45 43 41 39 36 34 33 31 29 29 30 29 26 23 21 20 20 21 21 20 20 21 22 21 20 19 18 18 18 18 19 20 20 18 13 9 10 12 14 15 15 15 14 13 12 13 15 16 16 16 14 11 10 9 10 12 14 15 17 20
46 47 48 49 50 50 51 52 52 53 54 54 54 53 51 51 50 49 48 48 47 47 47 47 46 45 43 41 38 36 34 32 30 29 30 29 26 22 20 19 19 19 20 20 19 18 18 17 17 17 17 17 18 19 20 20 20 18 13 9 10 12 13 14 14 12 10 9 9 10 11 12 12 11 9 7 6 6 7 9 11 13 16 18 21
46 47 47 48 49 50 51 51 51 52 53 54 55 54 52 51 50 49 48 48 49 49 48 48 47 46 44 41 38 36 35 32 30 29 28 25 22 20 19 19 19 18 18 18 17 16 16 15 14 15 15 14 15 17 19 19 16 13 10 10 11 12 12 11 10 8 7 6 7 8 8 9 8 7 7 6 7 7 9 11 13 15 18 21 23
43 44 45 47 48 49 50 49 50 50 51 53 54 55 54 52 50 50 49 49 49 49 49 49 47 45 43 40 38 36 34 32 29 27 25 22 20 19 19 19 19 19 18 18 16 15 14 13 13 12 11 11 13 15 15 14 12 11 11 11 11 10 10 9 7 5 5 5 6 6 6 7 6 6 7 7 8 9 11 12 14 16 19 21 23
41 43 44 45 46 47 48 48 49 50 51 53 54 55 55 53 52 51 50 50 49 48 49 49 47 46 43 40 38 36 33 30 28 26 24 22 21 20 19 20 20 20 20 18 17 15 14 13 13 11 10 10 10 11 11 11 11 11 11 11 10 10 9 8 6 5 6 6 5 5 6 7 7 7 8 9 10 11 12 14 16 17 19 20 21
38 41 43 44 46 47 47 48 50 51 52 53 53 53 53 53 53 52 51 50 50 49 48 46 44 43 42 40 37 35 31 29 29 27 24 22 21 21 21 22 23 23 22 21 19 17 16 15 14 12 11 11 11 10 11 12 12 12 11 10 10 10 9 8 7 7 7 6 6 7 7 8 8 9 10 12 12 12 13 15 17 18 18 19 20
34 37 39 41 44 46 47 49 51 52 52 52 53 53 53 54 55 54 54 55 54 53 52 48 41 38 38 37 35 33 31 30 29 26 23 22 22 22 23 24 25 24 23 22 20 18 17 17 15 13 12 12 12 12 13 13 12 11 11 10 10 10 9 8 8 8 7 7 8 9 9 9 10 11 12 13 12 12 13 15 16 17 18 18 19
29 30 32 35 38 42 44 47 48 49 50 50 51 52 54 56 58 57 57 58 59 58 56 50 42 37 35 35 35 34 33 30 27 23 21 20 20 21 23 23 23 23 24 23 21 19 19 17 15 14 13 12 13 14 13 12 11 11 11 10 10 10 9 8 8 8 9 10 10 11 11 12 13 13 13 12 12 12 13 15 16 17 17 18 18
25 27 28 29 31 35 40 43 46 48 50 52 54 55 55 55 57 59 60 58 56 53 49 42 38 35 32 33 34 32 28 25 23 20 20 20 18 18 19 20 20 22 23 22 21 20 19 17 16 15 13 14 14 14 13 12 12 12 11 10 10 9 9 9 9 10 12 12 13 13 14 14 13 12 12 12 12 12 14 16 16 17 17 17 18
21 23 24 25 28 31 35 39 43 48 51 53 55 57 57 56 56 57 58 54 47 41 36 35 34 31 28 28 29 25 19 18 20 21 22 21 20 19 19 20 20 21 22 21 21 20 19 17 16 15 14 15 15 14 13 13 13 12 11 10 10 10 10 11 12 13 14 14 15 16 16 14 12 11 11 12 13 14 16 16 16 16 17 17 18
18 20 22 24 27 30 32 32 36 42 49 54 58 59 59 58 56 52 49 47 43 37 33 32 30 26 23 23 24 22 19 19 21 22 23 23 22 22 23 22 21 21 21 21 21 20 19 17 16 16 16 16 15 15 15 15 14 13 12 11 10 10 12 13 14 15 17 18 18 18 15 12 11 11 12 13 15 15 16 16 16 16 16 17 18
17 20 22 25 27 29 31 31 30 30 32 40 52 61 63 60 56 53 49 45 41 35 30 26 24 22 22 21 20 21 23 23 23 24 25 24 23 24 24 23 22 21 21 21 20 19 18 17 16 16 16 16 16 16 16 16 14 13 11 10 10 11 13 15 17 18 19 20 18 16 13 12 12 12 13 14 15 15 15 15 15 16 17 18 18
15 18 19 22 25 26 29 31 31 28 22 20 29 46 62 68 64 57 52 48 42 37 31 27 25 24 23 21 20 21 25 26 26 26 25 24 24 25 25 24 23 22 21 21 20 19 19 18 17 17 17 17 17 17 16 14 13 11 10 10 11 11 13 14 16 17 18 17 15 14 13 13 13 13 13 13 14 14 14 14 15 16 17 17 17
12 13 14 16 20 23 25 27 27 25 22 16 14 17 33 56 62 55 48 46 44 41 35 29 26 24 24 24 24 24 24 24 25 25 24 23 24 26 27 27 27 26 24 22 20 19 19 19 19 19 18 18 17 15 14 12 10 9 9 10 10 10 11 12 13 14 15 14 14 13 12 12 11 12 12 13 13 13 14 14 15 16 17 16 17
6 8 9 10 13 17 21 24 24 20 17 15 12 3 16 34 43 43 39 37 36 35 32 29 27 26 27 27 26 25 23 22 22 22 22 23 24 26 27 28 27 27 26 24 21 19 18 19 19 19 18 17 16 14 12 10 9 9 9 9 9 10 11 11 12 12 12 12 11 11 10 10 10 11 11 11 11 13 14 15 15 16 16 16 17
1 1 3 4 7 10 13 18 24 22 15 11 10 7 17 24 27 31 32 31 29 30 31 31 30 30 29 27 25 24 22 21 20 20 20 21 22 24 25 25 25 26 25 23 22 21 20 20 21 20 18 17 15 13 10 8 8 8 9 9 10 10 10 10 10 10 10 9 9 8 8 8 9 10 10 11 12 13 14 14 15 15 15 16 17
5 5 3 3 4 6 9 14 20 20 16 17 16 16 18 19 21 24 25 26 27 28 29 30 30 29 27 25 24 23 22 21 20 20 20 21 23 24 24 23 23 23 22 21 21 20 20 20 20 19 18 16 13 10 9 8 7 8 9 9 9 9 8 8 8 7 7 7 7 6 5 7 8 10 11 12 12 12 12 12 14 15 16 16 17
9 8 7 7 7 6 9 15 20 23 25 26 24 21 19 19 19 20 22 25 27 28 28 29 27 25 23 22 22 21 21 20 20 21 21 22 23 25 25 23 22 20 19 19 19 19 18 19 19 18 17 14 11 9 8 7 7 7 8 8 8 7 6 5 6 7 6 6 4 4 5 7 8 10 11 12 11 11 11 13 14 16 17 18 18
10 11 10 9 10 12 15 19 23 25 26 25 23 21 21 20 20 21 23 26 26 26 25 24 22 21 19 19 18 19 19 20 20 20 21 22 24 25 24 22 20 19 19 19 18 17 17 17 17 16 15 12 10 10 8 7 6 7 7 7 7 6 5 5 6 7 6 4 4 5 6 8 9 10 11 12 11 12 13 14 16 17 18 18 18
8 10 10 10 9 11 14 16 17 18 19 20 20 20 20 20 21 21 22 23 23 22 21 20 19 18 17 17 16 17 17 18 18 19 20 22 23 23 21 19 19 19 19 18 18 17 17 17 16 14 13 12 11 10 8 7 7 7 8 7 7 6 5 6 6 5 4 4 4 6 7 8 9 10 11 12 13 14 15 16 17 17 17 17 17
10 11 12 11 10 10 11 13 13 13 15 16 17 18 20 21 21 20 20 21 20 20 20 19 18 18 18 17 17 16 15 16 17 18 19 20 19 18 17 17 18 19 19 18 18 17 17 16 16 14 13 13 11 9 8 8 9 8 7 7 6 6 7 6 5 4 4 5 6 7 8 8 9 10 11 13 14 16 16 17 17 17 17 17 16
15 16 16 16 15 15 15 14 14 14 14 14 14 15 16 18 19 19 19 19 19 19 19 18 18 17 18 18 17 16 16 17 18 18 17 16 15 15 15 16 17 18 18 18 17 17 16 16 15 14 13 11 9 7 8 10 9 7 6 7 7 7 7 6 5 5 6 6 8 9 8 8 9 10 12 14 16 16 17 17 17 17 17 17 15
13 14 15 15 15 15 16 16 16 15 15 14 14 15 16 17 19 19 17 16 16 16 15 15 16 17 18 18 17 17 17 17 17 16 14 13 14 15 16 16 17 18 18 18 18 18 16 15 14 13 12 10 9 9 10 11 9 6 7 8 9 9 8 7 7 7 7 8 9 9 9 8 9 10 12 14 15 16 16 17 17 17 17 16 14
8 8 9 9 10 11 12 13 14 13 13 14 14 15 16 16 16 15 14 14 14 14 12 12 14 16 17 17 17 17 17 17 16 16 15 15 16 16 16 17 18 18 18 19 18 18 17 15 14 13 12 11 11 12 13 12 8 6 8 10 10 9 9 8 8 8 9 9 10 10 9 9 9 10 12 13 14 15 16 16 16 17 16 14 13
5 3 3 3 3 5 8 11 10 9 10 12 12 13 14 14 13 12 12 12 13 13 12 12 13 15 15 16 17 18 18 17 17 17 17 16 16 16 17 18 18 18 18 18 18 18 17 15 14 13 13 13 13 15 15 13 9 8 10 11 10 10 10 9 9 10 10 11 11 11 11 10 10 10 11 12 14 15 16 16 16 16 15 13 12
1 1 2 1 2 4 6 8 9 8 9 10 10 9 10 11 11 11 12 12 13 13 12 12 12 13 13 14 15 16 17 17 16 16 15 15 15 15 16 17 17 18 18 18 18 18 16 15 14 14 14 14 16 17 17 14 11 10 12 11 10 10 10 10 11 11 12 12 12 11 10 10 9 10 10 11 12 14 14 15 16 15 13 12 11
5 4 4 4 5 5 6 8 9 9 10 11 9 9 10 11 11 12 13 13 13 13 12 12 13 13 13 13 13 13 14 14 13 13 13 13 13 14 15 15 16 16 16 16 17 16 15 14 13 14 15 17 19 19 17 15 14 13 12 10 10 10 11 11 11 10 9 9 8 8 8 8 8 8 9 9 11 12 14 15 15 14 12 11 11
3 3 3 5 6 7 7 8 8 9 12 13 11 11 14 15 14 13 13 13 13 13 13 13 13 13 12 12 13 13 13 13 13 13 13 13 13 13 14 14 14 14 14 14 15 14 14 13 13 14 16 18 19 18 17 16 15 14 11 9 10 11 12 10 8 5 3 3 4 5 6 6 6 7 8 9 11 12 13 14 14 12 11 11 12
1 0 0 1 3 5 8 9 8 8 10 11 10 11 13 15 13 13 13 13 13 13 13 12 11 11 11 13 14 14 14 14 14 13 13 12 13 13 13 13 13 13 13 13 13 13 13 13 13 15 17 20 20 20 19 18 15 11 9 8 10 11 10 7 4 1 1 1 2 3 4 5 6 7 8 9 11 12 12 13 12 12 11 11 12
7 6 5 4 3 2 4 6 8 9 9 8 7 9 11 11 11 11 12 12 12 12 12 11 10 11 11 12 13 13 13 13 13 12 12 12 12 12 12 13 13 12 12 12 12 12 13 13 15 17 19 20 20 21 20 16 12 10 9 8 8 8 6 3 1 3 4 3 2 2 3 4 6 7 8 9 10 11 12 12 12 11 11 12 13
Wind_Direction
224 225 227 228 229 230 231 231 232 232 233 233 235 233 232 231 232 233 234 234 234 234 235 237 237 237 236 235 234 231 230 231 232 233 234 235 235 237 237 237 237 237 237 237 237 237 236 234 235 236 238 241 242 243 244 247 249 248 249 251 254 258 262 264 265 260 253 250 247 244 246 249 252 256 261 265 267 270 276 282 285 287 288 290 291
223 225 226 227 229 230 231 231 232 232 233 233 234 233 232 232 232 233 233 234 235 235 236 237 237 237 236 235 235 233 231 231 233 234 236 235 234 235 237 237 238 239 239 238 237 237 239 239 238 237 238 241 243 244 245 247 251 252 252 255 257 259 263 266 265 262 258 253 246 242 243 247 252 255 261 268 272 276 281 287 291 293 294 295 296
223 224 225 228 230 230 230 231 232 232 232 232 232 232 232 232 232 232 233 234 235 236 237 237 237 237 237 237 237 235 233 232 233 235 237 237 235 235 237 238 239 240 241 240 239 238 240 241 242 240 239 240 242 244 244 245 248 252 257 260 260 261 264 264 264 265 263 255 245 241 240 244 251 257 263 270 277 283 290 296 299 299 299 299 299
221 223 225 227 229 229 230 231 231 232 231 231 230 230 230 231 231 232 233 233 234 235 236 238 238 238 238 239 239 238 235 232 233 236 238 238 237 236 238 239 241 242 244 245 244 242 242 243 244 243 243 242 242 242 242 243 246 252 257 261 262 263 266 266 266 266 263 255 245 240 241 246 251 259 267 273 282 293 300 304 306 305 304 299 296
220 222 224 226 227 229 230 230 230 231 231 230 229 229 229 229 231 232 232 233 234 235 236 238 239 239 240 240 240 241 238 235 235 237 239 240 239 238 239 241 243 245 247 249 248 246 246 246 247 247 247 247 245 242 242 243 247 251 255 259 261 264 267 269 269 266 262 258 251 243 245 252 254 261 272 282 292 299 303 307 309 309 308 301 293
219 222 223 224 226 228 229 230 231 232 231 230 229 229 228 229 230 231 232 233 234 235 237 238 239 240 241 242 242 243 242 239 238 239 240 242 242 240 240 241 244 247 249 251 251 251 250 250 250 251 251 251 250 248 246 246 248 251 255 259 262 264 267 268 268 265 260 260 260 256 258 264 266 269 278 290 298 304 307 309 309 309 307 300 293
220 221 223 224 225 227 229 231 232 232 232 231 230 230 229 229 230 230 231 233 234 235 236 238 240 242 243 244 244 245 245 243 241 240 241 242 244 244 243 243 245 247 250 253 254 254 254 253 253 253 253 253 253 253 252 251 251 253 257 261 264 265 265 265 265 262 258 260 264 265 269 276 276 276 284 295 300 306 311 311 308 307 304 297 294
220 221 223 223 225 227 229 230 231 233 233 233 232 231 230 230 231 231 232 233 234 235 237 238 240 243 244 246 246 247 247 246 244 242 242 242 244 245 246 246 247 249 251 255 256 257 257 255 254 254 254 254 254 254 255 254 253 255 258 260 263 264 263 262 261 259 257 261 266 269 274 278 278 280 290 301 305 308 312 310 306 305 303 296 293
220 221 222 224 227 228 228 229 230 232 232 233 233 232 231 231 232 233 233 233 234 235 237 239 241 243 245 246 247 248 249 249 248 246 245 244 245 246 247 249 250 252 254 257 259 261 261 260 258 256 256 256 256 256 256 255 254 254 256 259 261 263 263 261 258 256 257 262 267 271 274 275 276 283 291 298 304 308 310 308 304 303 300 294 292
219 221 223 227 229 228 227 228 229 230 231 232 233 233 233 232 232 233 234 235 235 236 237 238 240 242 245 247 248 249 249 250 250 249 248 248 248 249 250 252 254 256 258 260 263 265 266 266 263 260 257 257 257 257 256 256 255 255 257 260 261 264 265 260 254 253 256 261 265 267 269 270 274 282 288 294 301 306 308 306 302 299 295 292 294
220 223 226 229 228 227 227 227 228 229 231 232 232 233 233 233 233 233 234 235 236 236 237 239 240 242 244 246 248 249 250 251 252 251 251 250 250 251 252 255 258 260 262 263 266 268 269 270 270 266 261 259 258 258 257 256 256 256 257 259 263 265 262 255 250 251 254 257 260 261 264 267 271 279 287 294 299 304 305 303 298 294 293 294 297
220 224 227 227 225 226 227 227 228 229 230 231 232 233 233 233 233 233 234 235 235 236 237 239 240 242 244 246 248 250 252 253 253 254 253 252 252 254 255 257 259 262 264 266 269 271 270 272 274 272 268 264 261 261 260 258 257 257 256 256 262 263 255 248 248 252 253 252 254 257 260 264 269 278 287 295 299 302 303 301 295 291 291 295 297
221 224 225 224 225 226 227 227 228 229 230 231 231 232 232 233 234 234 234 234 234 236 237 239 241 242 244 246 248 251 253 254 254 255 254 254 255 256 258 260 261 263 265 267 270 272 272 272 274 274 273 270 265 263 263 261 259 257 255 255 258 259 253 247 248 254 256 254 252 252 255 261 267 275 285 294 300 302 301 299 293 290 291 294 297
222 223 224 224 226 227 227 228 230 231 231 230 230 231 232 233 234 234 233 233 234 235 237 238 240 242 244 246 249 252 254 255 256 256 256 256 258 259 260 261 262 263 265 267 269 273 274 273 273 275 275 273 270 266 265 266 263 259 257 256 257 258 253 248 250 254 256 255 252 251 253 259 267 276 285 294 300 300 298 295 291 290 292 294 296
223 224 224 224 225 226 227 229 230 231 230 229 229 230 231 233 233 233 233 233 235 236 237 238 240 241 243 246 248 251 254 254 255 256 257 258 259 261 261 261 262 262 263 264 264 267 272 273 272 273 274 274 272 268 267 268 265 260 258 257 258 257 253 249 249 252 255 254 251 251 256 263 271 280 289 295 298 298 295 291 290 291 292 293 293
223 223 224 224 225 227 228 230 231 230 229 228 228 230 231 232 233 232 233 234 235 236 237 238 239 241 243 245 247 250 252 253 254 256 257 259 260 260 260 260 261 261 261 262 262 261 264 270 272 271 271 273 273 270 268 269 265 260 260 259 259 258 256 251 247 250 258 260 251 250 260 270 276 283 291 295 296 294 291 288 289 291 291 292 294
224 225 225 226 227 228 229 230 231 230 228 228 229 230 231 231 232 232 233 234 235 236 236 237 239 240 242 244 246 249 250 252 254 256 257 259 259 259 260 259 258 259 259 260 260 258 259 265 271 271 269 270 271 270 271 272 266 261 261 262 263 264 260 252 245 247 258 262 253 251 262 272 279 287 293 294 293 292 289 289 290 291 292 294 295
225 226 228 229 230 230 231 231 231 230 229 229 230 231 231 232 232 232 233 233 234 235 236 237 239 241 242 244 246 248 250 252 255 257 258 260 260 260 260 258 257 257 257 257 258 261 262 264 268 269 269 269 269 270 272 271 266 264 265 264 269 273 266 253 247 246 252 253 250 253 263 274 282 289 293 292 292 290 289 291 293 294 294 294 295
228 229 233 234 234 233 231 231 231 231 231 232 232 232 233 233 233 232 233 234 235 235 236 237 239 240 242 244 246 247 249 253 255 256 258 259 260 260 259 256 255 255 255 254 256 260 262 262 264 268 271 271 270 270 272 270 267 269 270 271 283 291 276 254 243 241 247 251 252 257 265 276 284 289 291 291 290 289 290 293 295 294 293 294 298
234 236 239 238 235 233 230 229 229 231 233 234 234 234 234 233 232 232 232 234 234 235 236 237 238 239 240 242 244 246 248 251 253 254 257 257 257 257 256 253 251 250 249 250 252 254 255 258 264 269 272 272 271 271 271 270 268 268 271 282 298 299 274 247 237 244 256 261 261 263 270 279 285 288 289 289 289 290 293 295 295 294 295 298 302
243 244 242 238 234 232 230 229 229 230 233 235 234 234 234 233 232 232 233 233 232 233 234 235 236 237 239 241 242 244 247 249 250 252 254 255 254 253 251 249 247 246 245 246 249 250 253 257 262 266 268 271 272 272 268 264 264 268 276 287 292 277 246 238 243 253 262 263 263 268 275 281 285 289 289 289 291 295 298 299 299 299 301 303 303
248 246 241 235 232 231 231 230 229 229 231 233 233 233 233 233 233 233 233 232 231 232 233 233 233 234 236 238 240 242 244 245 248 250 251 252 251 249 245 243 243 242 240 240 242 245 250 257 262 265 267 269 268 263 259 257 263 271 279 280 262 233 232 242 251 258 261 262 267 276 282 286 290 291 290 292 298 303 304 304 304 306 306 305 304
243 240 237 234 233 233 232 232 231 229 229 230 232 232 231 231 231 232 231 231 230 230 229 230 230 232 234 235 236 239 241 242 244 246 248 247 243 238 236 237 238 237 235 235 236 240 246 253 258 261 261 261 259 256 256 260 266 269 267 252 231 229 238 247 254 258 260 266 277 283 287 290 292 292 294 302 310 310 308 307 306 306 306 304 302
238 237 236 236 236 236 235 235 234 233 230 229 230 231 230 229 229 229 229 229 228 227 227 227 228 229 231 232 233 235 236 238 240 241 240 235 229 227 231 234 233 229 227 229 232 237 241 246 251 254 253 252 253 255 257 258 256 247 235 230 232 238 244 246 246 248 255 268 278 281 285 290 293 297 305 310 310 309 309 309 308 307 305 303 301
239 239 238 237 237 237 236 236 235 235 233 230 228 228 228 227 226 226 227 227 226 225 225 226 227 228 228 229 230 231 232 231 231 228 223 218 218 222 227 229 226 221 218 220 226 230 234 236 236 236 239 244 248 251 249 241 229 220 223 233 239 240 239 237 235 238 246 255 264 270 279 286 292 299 302 304 304 303 303 306 308 308 305 302 299
246 243 241 240 240 238 237 237 238 238 236 232 229 228 226 225 225 224 224 224 224 224 225 225 225 226 227 227 227 227 225 222 219 214 209 210 215 218 220 221 219 215 212 211 213 216 221 224 219 215 220 231 235 233 225 214 211 219 228 235 235 231 230 227 221 220 227 236 251 263 269 276 282 288 293 296 298 298 299 303 309 311 307 301 298
248 246 244 243 242 240 239 239 239 238 235 232 229 226 223 223 223 223 222 221 220 220 220 219 220 222 223 223 223 220 215 211 209 208 208 211 214 216 217 215 209 205 204 203 203 206 212 214 210 208 212 215 216 217 214 211 215 222 224 222 220 220 219 216 211 214 227 243 258 264 267 270 273 277 283 288 293 297 301 305 310 312 307 301 299
246 246 246 244 242 241 241 240 238 237 234 230 226 223 221 220 220 223 226 224 221 218 216 215 217 222 224 222 217 210 207 208 209 211 212 213 214 212 209 205 201 199 200 199 198 204 210 210 208 210 212 210 212 217 215 212 213 213 209 208 210 212 212 211 215 226 240 252 260 264 263 263 267 273 278 284 292 298 303 306 308 307 304 300 298
250 248 247 246 244 242 241 240 239 236 231 227 223 222 222 220 219 223 228 229 228 227 223 217 215 219 223 224 218 209 206 208 210 213 214 214 214 210 203 198 198 200 199 198 200 206 210 208 210 214 211 206 210 212 208 204 203 200 197 200 205 210 214 219 231 243 248 252 256 259 258 260 266 273 277 284 295 302 305 307 305 302 299 296 294
265 261 256 252 249 246 244 242 238 233 230 228 224 220 219 219 218 219 223 225 227 228 227 221 216 213 215 219 219 216 215 214 210 207 208 207 205 202 199 198 200 199 197 198 204 210 211 210 212 214 208 204 207 207 201 196 193 191 193 200 206 214 223 231 242 249 249 249 252 255 259 264 268 272 279 290 303 309 310 308 303 298 294 292 292
276 268 258 248 242 240 238 235 233 231 229 227 223 217 213 211 212 214 216 217 216 217 221 222 218 214 211 210 209 210 215 216 208 202 201 198 191 188 191 195 197 197 198 202 208 212 212 211 210 207 201 200 202 200 195 190 188 190 198 207 213 222 232 238 244 249 249 250 252 256 262 267 268 274 289 302 309 311 310 306 298 292 289 289 295
278 266 257 248 240 234 228 223 222 224 224 223 220 216 211 205 201 200 204 206 205 205 211 215 211 204 199 198 197 198 199 201 201 198 193 188 184 184 187 189 192 196 200 205 211 213 211 208 205 200 197 196 196 193 190 189 191 197 206 216 228 238 243 243 243 244 247 249 253 258 265 269 271 282 295 303 307 307 303 296 289 285 286 292 299
272 267 262 254 244 235 230 222 213 209 213 214 211 208 206 201 193 185 184 188 190 189 192 194 187 178 177 180 187 195 194 190 188 188 185 183 183 184 185 185 188 193 197 202 207 209 206 202 199 196 195 194 193 192 192 194 199 206 217 234 249 255 254 251 248 246 247 250 253 259 265 267 273 285 295 300 302 299 292 284 282 285 291 299 303
258 257 256 253 245 235 228 223 216 209 208 212 212 206 199 192 185 176 170 168 166 162 163 167 167 168 172 173 176 186 188 184 182 183 183 182 183 183 183 183 185 189 193 197 201 201 198 196 194 194 195 195 194 194 196 201 208 219 236 253 260 260 257 255 253 250 249 250 253 256 259 265 275 288 296 298 295 288 279 277 282 290 298 303 303
252 242 238 241 244 240 233 226 220 212 206 218 249 230 185 170 163 157 153 150 147 146 152 162 168 168 166 163 165 175 183 183 183 183 184 183 183 182 183 183 184 186 188 191 195 198 198 196 195 196 196 196 196 198 202 209 220 236 252 261 263 260 255 250 247 245 244 245 248 251 258 271 284 294 297 294 285 276 273 278 288 296 302 303 302
256 246 235 228 232 241 242 237 228 214 206 219 251 322 105 124 132 136 139 142 142 146 157 168 169 161 157 158 163 169 175 178 181 183 185 186 186 186 188 190 190 188 187 188 192 195 197 197 198 198 198 198 201 204 209 220 236 251 262 266 263 258 252 245 241 239 237 239 245 254 267 282 294 299 297 288 276 272 277 286 293 299 302 301 300
63 341 277 236 219 225 236 235 228 220 214 218 216 146 103 106 120 131 138 144 148 155 164 167 163 157 156 160 164 167 168 172 176 180 183 186 189 193 198 200 197 193 191 192 193 193 193 195 197 200 201 203 206 210 216 230 245 255 262 263 257 249 243 237 235 236 238 244 255 266 281 295 304 303 294 281 275 277 284 291 297 301 303 301 301
83 88 119 163 182 201 212 219 218 203 168 143 142 135 121 121 131 138 144 149 152 157 161 160 159 159 159 159 163 167 169 172 176 179 182 188 193 197 200 200 199 196 195 195 195 194 194 195 197 200 204 206 209 213 219 229 243 256 264 259 248 238 233 234 239 245 251 259 266 274 293 309 313 306 293 282 279 283 290 296 302 305 305 304 303
81 91 109 118 120 145 179 192 194 180 154 140 141 140 134 135 143 148 150 150 149 151 154 156 158 161 161 162 167 172 176 181 186 188 191 194 197 198 196 195 195 196 195 195 196 196 197 196 196 199 203 205 208 211 215 225 246 264 265 253 239 232 234 245 258 262 261 264 271 287 307 314 311 304 295 287 285 290 296 300 304 305 306 306 306
79 84 85 92 114 143 164 175 176 168 153 144 143 144 144 147 151 151 150 148 147 149 152 154 157 161 165 170 174 178 185 192 196 198 199 199 197 194 190 187 188 190 192 194 196 198 197 196 196 199 201 202 205 207 212 229 253 260 252 241 236 241 253 265 267 263 260 265 282 301 309 307 301 298 294 290 290 294 296 297 299 303 305 307 306
80 90 89 87 105 135 152 160 163 156 145 139 139 139 140 142 143 144 145 145 145 147 150 153 158 163 168 173 179 186 193 198 199 199 199 196 191 186 183 185 189 191 193 195 198 199 198 196 197 199 198 198 202 206 217 237 248 244 237 236 240 249 263 269 264 258 259 274 293 305 306 299 293 290 288 286 288 291 292 293 296 301 305 305 305
93 105 109 112 120 131 138 142 145 143 140 138 137 135 134 134 135 138 141 143 144 147 150 153 159 164 167 173 181 186 189 192 192 191 190 189 188 188 191 195 196 196 198 200 201 202 201 199 199 198 196 198 205 214 227 237 238 234 236 241 246 255 265 269 261 256 265 280 293 304 307 300 291 284 280 280 284 288 289 290 294 299 303 303 304
99 104 106 109 116 124 129 132 136 138 139 138 138 138 137 138 139 142 145 148 150 152 154 157 161 166 173 179 183 182 180 183 187 187 187 191 197 198 198 198 197 197 199 201 202 203 204 203 202 199 199 204 214 225 232 233 233 239 252 254 251 258 269 272 266 264 272 283 292 303 310 305 291 280 276 278 283 285 286 287 291 297 300 302 304
95 93 95 99 104 111 120 125 127 127 127 128 131 134 137 140 145 147 149 150 153 158 164 169 173 177 181 182 181 180 180 183 186 188 193 199 199 193 191 193 196 198 199 198 198 200 204 206 203 200 202 210 218 224 229 230 234 258 277 267 258 262 271 277 277 277 278 283 292 302 310 308 295 284 278 278 280 282 281 283 288 294 297 301 303
104 83 81 95 105 112 123 129 129 128 130 131 132 137 140 144 148 149 149 150 150 152 157 165 173 180 184 183 182 182 184 185 188 193 197 198 194 189 188 190 194 196 198 198 199 201 204 205 203 204 209 215 217 222 229 231 239 271 285 275 270 274 279 279 279 278 278 281 289 296 301 303 299 289 280 275 275 277 278 279 285 291 296 300 301
133 96 58 77 123 142 147 146 142 142 143 142 141 143 146 148 148 147 149 153 154 153 156 164 172 180 186 188 188 188 189 190 193 195 195 194 192 189 189 191 193 196 198 200 202 204 206 207 208 212 217 219 220 228 234 233 240 269 279 273 272 278 280 275 274 275 277 280 285 288 290 291 291 286 278 271 268 271 274 277 283 290 295 299 295
250 332 346 303 211 199 187 176 173 171 164 157 156 156 156 157 161 163 164 165 168 171 177 181 183 185 188 189 189 189 188 188 190 191 193 194 193 193 193 194 194 196 199 202 206 209 211 212 214 215 216 219 226 234 236 234 238 258 267 264 266 274 275 271 273 277 277 275 275 274 273 274 276 276 272 266 264 267 270 275 283 289 293 293 288
281 296 302 275 249 239 223 203 197 193 184 177 178 183 182 179 177 175 174 174 174 178 181 179 175 173 172 171 172 175 178 180 183 188 193 196 195 195 196 195 195 196 199 202 205 208 210 212 213 213 214 220 229 236 239 239 241 248 253 258 266 273 275 275 278 279 275 266 261 259 259 260 262 261 259 258 261 264 269 276 283 287 288 285 281
253 263 275 270 259 244 223 210 206 200 192 190 195 199 194 188 180 173 170 168 168 168 167 162 158 158 160 163 166 170 174 179 184 189 193 196 198 199 199 199 200 202 202 201 203 204 204 207 212 215 219 226 233 237 239 239 237 237 244 259 269 271 272 274 274 273 268 261 256 254 254 253 252 251 252 255 258 263 270 278 281 282 282 282 278
149 117 9 267 256 240 227 225 223 203 185 189 204 206 194 182 172 161 157 157 157 159 160 158 156 157 159 162 165 168 171 176 181 185 188 193 198 200 202 204 209 211 211 209 208 208 210 213 216 220 226 233 236 235 232 229 228 230 244 264 270 266 264 261 257 264 23 343 289 270 262 256 251 250 251 253 258 265 272 276 277 277 279 279 277
90 80 73 75 95 145 189 207 205 187 167 166 181 183 173 166 161 156 154 156 158 161 162 164 164 163 162 163 167 171 175 178 179 179 181 186 192 197 201 205 210 216 219 217 215 216 220 222 223 226 231 234 235 234 230 227 225 232 246 263 268 261 250 231 130 65 48 35 12 319 278 259 252 251 253 256 262 268 271 272 272 273 275 277 279
Height
1474 1476 1479 1482 1485 1488 1490 1493 1496 1499 1502 1504 1505 1508 1510 1512 1515 1517 1519 1521 1523 1525 1526 1528 1530 1532 1533 1535 1536 1537 1538 1539 1541 1542 1543 1544 1544 1545 1547 1548 1548 1549 1551 1551 1552 1553 1553 1554 1555 1556 1557 1557 1558 1559 1560 1561 1562 1563 1564 1564 1565 1566 1566 1566 1566 1566 1566 1566 1566 1567 1567 1567 1567 1567 1568 1568 1568 1568 1568 1567 1567 1566 1565 1564 1563
1469 1472 1476 1479 1481 1484 1487 1490 1493 1496 1498 1500 1501 1504 1506 1508 1511 1513 1515 1517 1520 1521 1523 1525 1527 1529 1530 1532 1533 1534 1536 1537 1539 1540 1540 1541 1542 1543 1545 1545 1546 1547 1548 1549 1550 1551 1552 1552 1553 1554 1555 1556 1556 1557 1558 1559 1560 1561 1562 1563 1564 1564 1565 1565 1565 1565 1566 1566 1566 1566 1567 1567 1567 1568 1568 1568 1568 1568 1567 1566 1566 1565 1563 1562 1562
1466 1469 1473 1475 1477 1481 1484 1487 1489 1492 1494 1496 1497 1499 1502 1504 1507 1509 1511 1514 1516 1518 1520 1522 1524 1526 1528 1529 1530 1532 1533 1535 1536 1537 1538 1539 1540 1541 1543 1543 1544 1545 1546 1547 1548 1550 1550 1550 1551 1552 1553 1554 1555 1556 1557 1557 1558 1559 1561 1562 1562 1563 1564 1564 1564 1564 1565 1565 1566 1566 1566 1566 1567 1568 1568 1568 1567 1567 1566 1565 1564 1563 1562 1561 1560
1463 1466 1469 1471 1474 1478 1480 1483 1485 1487 1489 1491 1492 1495 1498 1500 1503 1505 1507 1510 1512 1514 1517 1519 1521 1523 1524 1525 1527 1528 1530 1532 1533 1534 1535 1537 1538 1539 1540 1541 1542 1543 1544 1545 1546 1547 1548 1548 1549 1550 1551 1552 1553 1554 1555 1556 1557 1558 1559 1560 1561 1561 1562 1563 1563 1563 1563 1564 1564 1565 1565 1566 1566 1567 1567 1566 1566 1565 1564 1563 1562 1561 1560 1559 1558
1459 1462 1465 1468 1471 1474 1476 1479 1481 1482 1484 1486 1488 1491 1494 1497 1499 1501 1503 1506 1508 1511 1514 1516 1518 1519 1520 1522 1523 1525 1527 1529 1531 1532 1533 1535 1536 1537 1538 1539 1540 1541 1542 1543 1544 1545 1546 1546 1548 1549 1550 1551 1552 1553 1554 1555 1556 1557 1557 1558 1559 1560 1561 1561 1561 1561 1561 1561 1562 1563 1564 1564 1565 1565 1565 1564 1564 1563 1562 1561 1560 1559 1558 1557 1556
1455 1458 1461 1464 1467 1469 1472 1474 1476 1478 1480 1482 1485 1488 1490 1493 1495 1497 1499 1502 1505 1507 1510 1512 1514 1515 1517 1519 1521 1522 1525 1527 1528 1529 1531 1532 1534 1535 1536 1537 1538 1539 1540 1541 1542 1543 1543 1545 1546 1547 1548 1549 1550 1551 1552 1553 1554 1555 1555 1556 1557 1558 1559 1559 1559 1559 1558 1558 1559 1560 1561 1562 1562 1562 1562 1562 1562 1561 1560 1559 1558 1557 1555 1554 1553
1450 1454 1457 1459 1462 1465 1467 1469 1471 1474 1477 1480 1482 1485 1487 1489 1491 1493 1496 1498 1501 1504 1506 1508 1510 1512 1514 1516 1518 1520 1522 1524 1525 1527 1528 1530 1531 1532 1533 1534 1536 1537 1538 1539 1540 1540 1541 1543 1544 1545 1546 1547 1548 1549 1550 1551 1552 1553 1553 1554 1555 1556 1556 1557 1557 1557 1557 1557 1558 1558 1559 1560 1559 1559 1559 1559 1559 1559 1558 1557 1555 1554 1553 1552 1551
1446 1449 1452 1454 1457 1459 1462 1465 1468 1472 1475 1477 1480 1482 1484 1486 1488 1490 1493 1495 1497 1500 1502 1505 1507 1509 1511 1513 1515 1517 1519 1520 1522 1523 1525 1526 1528 1529 1531 1532 1533 1534 1536 1536 1538 1538 1538 1540 1541 1542 1543 1544 1545 1547 1548 1549 1550 1551 1551 1553 1554 1554 1554 1555 1554 1555 1555 1556 1556 1557 1557 1557 1558 1558 1557 1557 1557 1556 1556 1554 1552 1551 1551 1549 1548
1441 1444 1447 1449 1451 1454 1458 1462 1465 1469 1472 1474 1477 1478 1480 1483 1485 1488 1490 1492 1494 1497 1499 1502 1504 1506 1508 1510 1512 1514 1515 1516 1517 1519 1521 1523 1525 1527 1528 1529 1531 1532 1533 1534 1535 1536 1536 1537 1538 1539 1540 1541 1543 1544 1545 1546 1548 1548 1549 1551 1551 1552 1552 1552 1552 1553 1553 1554 1554 1555 1555 1555 1556 1557 1556 1555 1555 1554 1553 1552 1550 1549 1548 1547 1546
1437 1439 1441 1443 1446 1450 1454 1458 1461 1465 1468 1470 1472 1475 1477 1480 1482 1484 1486 1488 1491 1494 1496 1499 1501 1503 1504 1506 1508 1510 1510 1511 1513 1515 1517 1520 1522 1524 1525 1527 1529 1530 1531 1532 1533 1533 1534 1535 1535 1536 1538 1539 1540 1541 1542 1544 1545 1546 1547 1548 1548 1548 1548 1549 1549 1550 1551 1551 1551 1552 1553 1553 1554 1555 1554 1553 1552 1551 1550 1549 1547 1546 1545 1543 1543
1432 1434 1436 1438 1442 1446 1450 1453 1457 1460 1463 1465 1468 1471 1474 1477 1479 1481 1483 1485 1488 1490 1493 1495 1496 1499 1501 1502 1504 1505 1506 1507 1509 1512 1514 1517 1520 1522 1523 1525 1527 1528 1529 1529 1530 1530 1531 1532 1533 1534 1535 1536 1537 1538 1539 1540 1541 1542 1543 1544 1545 1545 1545 1546 1547 1548 1548 1548 1548 1549 1549 1550 1551 1552 1551 1550 1549 1548 1547 1546 1545 1543 1542 1540 1539
1428 1430 1432 1435 1439 1442 1445 1448 1451 1454 1458 1461 1464 1467 1471 1473 1475 1477 1479 1481 1484 1486 1488 1490 1492 1495 1496 1498 1499 1500 1501 1503 1506 1509 1511 1514 1517 1519 1521 1523 1524 1525 1526 1526 1527 1527 1528 1529 1530 1531 1532 1533 1534 1535 1536 1537 1538 1539 1540 1541 1541 1541 1541 1542 1543 1544 1544 1545 1545 1545 1546 1546 1547 1548 1548 1547 1545 1545 1544 1543 1542 1540 1539 1538 1536
1424 1427 1430 1433 1436 1438 1441 1444 1447 1449 1452 1456 1460 1463 1466 1469 1470 1473 1475 1477 1480 1482 1484 1486 1488 1490 1491 1493 1494 1496 1498 1500 1503 1506 1508 1511 1514 1517 1518 1519 1520 1521 1522 1523 1524 1524 1524 1526 1527 1528 1529 1530 1531 1532 1533 1534 1534 1535 1536 1537 1537 1537 1537 1538 1539 1539 1540 1541 1541 1542 1542 1542 1543 1544 1544 1543 1542 1541 1540 1539 1539 1538 1536 1535 1534
1420 1423 1426 1429 1432 1435 1438 1440 1442 1445 1448 1451 1455 1458 1461 1463 1466 1468 1471 1474 1476 1478 1479 1481 1483 1485 1487 1489 1491 1493 1495 1497 1500 1502 1504 1508 1511 1513 1514 1515 1516 1518 1519 1520 1521 1520 1521 1522 1523 1524 1526 1527 1528 1529 1530 1530 1531 1531 1532 1533 1533 1533 1534 1534 1535 1536 1536 1537 1537 1538 1539 1539 1539 1540 1540 1540 1539 1538 1537 1536 1536 1535 1533 1533 1532
1416 1419 1422 1424 1427 1430 1433 1436 1438 1441 1444 1447 1450 1453 1456 1458 1461 1464 1467 1469 1471 1472 1474 1477 1479 1481 1483 1485 1487 1489 1491 1494 1496 1498 1501 1504 1508 1510 1511 1512 1513 1514 1515 1516 1517 1517 1518 1519 1520 1521 1522 1523 1524 1525 1526 1526 1527 1527 1528 1529 1530 1530 1530 1531 1532 1532 1532 1533 1535 1536 1537 1537 1537 1537 1537 1536 1536 1535 1534 1533 1532 1531 1530 1529 1529
1412 1415 1417 1420 1423 1425 1428 1431 1434 1437 1440 1443 1445 1448 1450 1453 1457 1460 1462 1464 1466 1467 1469 1472 1474 1476 1479 1481 1483 1485 1487 1490 1492 1494 1498 1501 1505 1506 1507 1508 1509 1510 1511 1512 1513 1514 1514 1515 1516 1517 1518 1520 1521 1522 1522 1523 1523 1523 1524 1526 1527 1526 1526 1528 1528 1528 1528 1530 1532 1533 1533 1534 1534 1534 1533 1533 1532 1532 1531 1530 1529 1529 1527 1526 1525
1408 1410 1412 1415 1418 1420 1423 1426 1429 1432 1436 1438 1440 1442 1445 1449 1452 1455 1456 1458 1460 1462 1464 1467 1469 1472 1475 1477 1479 1481 1483 1486 1489 1491 1495 1498 1501 1503 1504 1505 1505 1506 1508 1509 1510 1511 1512 1513 1514 1514 1515 1516 1517 1518 1519 1519 1520 1520 1521 1523 1523 1523 1523 1523 1524 1525 1526 1527 1529 1530 1530 1531 1531 1530 1530 1530 1529 1528 1527 1527 1527 1526 1525 1523 1522
1403 1406 1407 1410 1412 1415 1418 1421 1424 1428 1431 1433 1435 1438 1441 1444 1446 1448 1450 1452 1455 1457 1460 1463 1466 1468 1471 1473 1475 1477 1480 1482 1485 1488 1492 1495 1497 1499 1500 1501 1502 1503 1505 1506 1507 1508 1510 1511 1511 1512 1513 1514 1515 1515 1516 1517 1517 1517 1518 1520 1521 1520 1519 1518 1520 1523 1525 1525 1526 1527 1527 1528 1528 1528 1527 1527 1526 1525 1524 1524 1523 1523 1522 1521 1519
1399 1401 1403 1405 1408 1410 1413 1416 1420 1423 1425 1427 1431 1434 1437 1439 1441 1444 1446 1448 1451 1454 1457 1460 1462 1464 1466 1468 1471 1473 1476 1479 1482 1485 1488 1492 1494 1495 1497 1498 1499 1501 1502 1504 1505 1506 1508 1509 1509 1510 1511 1512 1513 1513 1514 1515 1515 1515 1516 1517 1517 1516 1515 1516 1518 1521 1522 1523 1524 1525 1525 1526 1526 1525 1525 1524 1523 1522 1522 1521 1520 1520 1519 1518 1517
1395 1398 1400 1402 1405 1407 1409 1412 1415 1418 1420 1422 1426 1429 1432 1435 1438 1440 1442 1445 1448 1451 1454 1456 1458 1460 1462 1464 1466 1469 1472 1475 1478 1481 1485 1488 1490 1492 1493 1494 1496 1498 1499 1500 1502 1503 1505 1506 1507 1508 1509 1510 1511 1511 1512 1512 1513 1513 1514 1514 1514 1514 1514 1515 1517 1518 1520 1521 1522 1522 1523 1523 1523 1523 1522 1521 1520 1519 1519 1519 1518 1518 1517 1516 1516
1392 1395 1397 1399 1402 1404 1406 1408 1410 1412 1415 1418 1421 1424 1428 1431 1433 1436 1439 1441 1444 1447 1449 1451 1453 1455 1457 1460 1462 1465 1468 1471 1474 1478 1481 1483 1485 1487 1489 1490 1492 1494 1495 1496 1498 1500 1502 1503 1505 1506 1507 1508 1509 1510 1510 1511 1511 1511 1511 1511 1512 1512 1513 1514 1515 1517 1518 1519 1519 1520 1521 1521 1520 1520 1519 1518 1517 1517 1517 1516 1516 1515 1515 1514 1513
1390 1391 1393 1396 1399 1401 1404 1406 1408 1410 1413 1416 1417 1419 1422 1426 1429 1432 1435 1437 1440 1442 1444 1446 1448 1450 1453 1455 1458 1461 1463 1466 1470 1474 1476 1478 1481 1483 1485 1486 1488 1490 1491 1492 1493 1495 1498 1500 1502 1503 1504 1506 1507 1508 1509 1509 1509 1509 1509 1509 1510 1511 1512 1513 1514 1515 1516 1517 1517 1518 1518 1518 1518 1517 1516 1516 1515 1515 1515 1515 1514 1514 1513 1512 1511
1387 1388 1391 1394 1396 1398 1401 1404 1406 1409 1411 1413 1414 1416 1419 1422 1425 1428 1431 1433 1435 1437 1438 1441 1443 1446 1448 1451 1454 1456 1459 1462 1466 1469 1472 1474 1477 1479 1481 1483 1485 1486 1487 1489 1490 1492 1495 1497 1499 1501 1502 1503 1505 1506 1506 1507 1507 1507 1507 1508 1509 1510 1511 1512 1512 1513 1514 1514 1515 1515 1515 1515 1515 1515 1515 1514 1514 1514 1513 1513 1513 1512 1511 1510 1509
1384 1386 1388 1390 1392 1395 1397 1400 1403 1405 1408 1410 1412 1413 1415 1417 1420 1424 1426 1429 1430 1432 1434 1437 1439 1441 1443 1447 1450 1452 1455 1459 1463 1466 1468 1471 1473 1476 1478 1479 1481 1483 1485 1487 1489 1491 1493 1495 1496 1498 1500 1501 1502 1503 1504 1505 1505 1505 1506 1506 1507 1508 1509 1510 1510 1511 1512 1512 1513 1513 1513 1513 1513 1513 1513 1512 1512 1512 1512 1511 1511 1510 1509 1508 1507
1382 1384 1386 1387 1389 1391 1393 1396 1398 1400 1403 1406 1407 1409 1410 1412 1415 1418 1421 1423 1426 1428 1430 1432 1435 1437 1440 1443 1446 1449 1452 1456 1459 1462 1465 1468 1470 1472 1474 1476 1478 1480 1482 1485 1488 1490 1492 1493 1494 1495 1497 1498 1500 1501 1501 1502 1503 1503 1504 1505 1506 1506 1507 1508 1509 1509 1510 1510 1511 1511 1511 1511 1511 1511 1511 1511 1510 1510 1509 1509 1508 1507 1506 1505 1504
1379 1381 1383 1385 1387 1389 1390 1392 1393 1395 1397 1399 1401 1403 1406 1408 1410 1412 1415 1419 1422 1425 1427 1429 1431 1433 1436 1439 1442 1445 1449 1453 1456 1459 1462 1465 1467 1469 1471 1473 1475 1477 1479 1482 1485 1488 1490 1491 1492 1493 1495 1496 1497 1498 1499 1500 1500 1501 1502 1503 1504 1505 1506 1506 1507 1507 1508 1509 1509 1509 1509 1509 1509 1509 1509 1508 1508 1508 1507 1506 1505 1504 1503 1502 1501
1375 1377 1378 1380 1382 1383 1385 1386 1386 1388 1390 1392 1394 1397 1401 1404 1406 1408 1411 1413 1416 1419 1422 1425 1429 1432 1434 1436 1439 1442 1446 1450 1453 1456 1459 1461 1464 1466 1468 1470 1472 1474 1476 1479 1482 1485 1487 1489 1490 1491 1492 1493 1495 1496 1497 1498 1499 1499 1501 1502 1503 1504 1504 1505 1505 1506 1506 1507 1507 1507 1507 1507 1507 1507 1506 1506 1506 1505 1504 1503 1502 1501 1501 1499 1498
1372 1373 1374 1375 1376 1377 1378 1378 1379 1380 1382 1385 1388 1391 1394 1396 1399 1401 1403 1404 1406 1409 1412 1418 1425 1431 1434 1436 1438 1440 1444 1446 1449 1453 1456 1459 1461 1463 1465 1467 1469 1471 1474 1477 1479 1482 1484 1486 1488 1489 1489 1490 1492 1494 1495 1496 1497 1498 1499 1500 1501 1502 1503 1503 1504 1504 1504 1505 1505 1505 1505 1505 1504 1504 1504 1504 1503 1503 1502 1501 1500 1499 1498 1497 1496
1369 1370 1370 1370 1371 1371 1372 1373 1374 1376 1378 1380 1383 1385 1386 1387 1389 1393 1395 1395 1396 1398 1403 1409 1415 1421 1428 1434 1437 1439 1441 1443 1447 1451 1454 1457 1459 1461 1463 1465 1467 1470 1473 1476 1478 1480 1482 1484 1486 1487 1487 1488 1490 1492 1493 1495 1495 1496 1498 1499 1500 1500 1501 1501 1502 1502 1502 1503 1503 1503 1503 1502 1502 1502 1502 1501 1501 1500 1499 1498 1498 1497 1496 1495 1494
1367 1368 1368 1368 1368 1369 1369 1369 1370 1371 1372 1373 1375 1377 1378 1380 1382 1385 1388 1390 1393 1398 1403 1408 1412 1414 1419 1428 1435 1438 1440 1443 1446 1450 1453 1455 1458 1460 1462 1464 1467 1469 1472 1474 1476 1478 1480 1482 1484 1485 1485 1486 1488 1490 1491 1493 1494 1495 1496 1497 1498 1499 1499 1500 1500 1500 1500 1501 1501 1501 1500 1500 1500 1500 1499 1499 1498 1498 1497 1496 1495 1495 1494 1493 1492
1365 1365 1366 1366 1367 1368 1368 1368 1366 1366 1365 1366 1367 1369 1370 1373 1376 1379 1382 1387 1395 1403 1408 1411 1414 1414 1415 1422 1432 1437 1440 1443 1446 1448 1451 1453 1455 1457 1460 1462 1465 1468 1471 1473 1475 1477 1478 1480 1481 1482 1483 1484 1486 1488 1490 1491 1492 1494 1495 1496 1496 1497 1497 1498 1498 1498 1498 1498 1498 1498 1498 1498 1498 1497 1497 1496 1495 1495 1495 1494 1493 1493 1492 1492 1491
1363 1363 1363 1364 1364 1365 1366 1367 1367 1366 1365 1363 1362 1362 1363 1365 1369 1373 1379 1384 1391 1400 1408 1412 1414 1415 1416 1420 1428 1435 1439 1442 1445 1446 1448 1451 1452 1454 1457 1460 1463 1466 1468 1471 1474 1476 1476 1478 1479 1480 1481 1482 1484 1486 1488 1489 1491 1492 1493 1494 1494 1495 1495 1496 1496 1496 1496 1496 1496 1496 1495 1495 1495 1495 1494 1494 1493 1493 1493 1492 1492 1491 1491 1490 1489
1362 1363 1363 1363 1364 1364 1365 1366 1366 1367 1367 1365 1359 1355 1354 1356 1359 1363 1370 1378 1385 1394 1405 1412 1414 1415 1416 1419 1425 1432 1437 1440 1442 1444 1446 1449 1451 1453 1456 1459 1461 1463 1465 1468 1471 1473 1475 1476 1477 1478 1479 1481 1482 1484 1486 1487 1489 1490 1491 1492 1493 1493 1494 1494 1494 1494 1493 1493 1493 1493 1493 1493 1493 1493 1492 1492 1491 1491 1491 1490 1490 1490 1489 1488 1487
1362 1363 1363 1364 1364 1365 1365 1365 1364 1365 1368 1369 1365 1355 1344 1339 1344 1351 1358 1366 1374 1384 1399 1411 1414 1414 1415 1418 1424 1431 1435 1438 1441 1443 1445 1447 1450 1452 1455 1457 1459 1461 1463 1466 1469 1471 1472 1473 1475 1476 1478 1479 1481 1482 1484 1486 1487 1489 1489 1490 1491 1491 1492 1492 1491 1491 1491 1491 1491 1491 1491 1491 1491 1490 1490 1489 1489 1489 1489 1489 1489 1488 1487 1486 1485
1361 1362 1363 1365 1366 1367 1368 1367 1365 1365 1367 1369 1370 1362 1340 1322 1324 1339 1353 1363 1368 1377 1393 1410 1415 1413 1413 1417 1424 1430 1435 1437 1440 1442 1444 1446 1448 1451 1453 1454 1456 1458 1460 1463 1467 1469 1470 1472 1473 1474 1476 1477 1479 1481 1482 1484 1486 1487 1488 1488 1489 1489 1490 1490 1489 1489 1489 1489 1489 1489 1489 1489 1488 1488 1488 1487 1487 1487 1487 1487 1487 1486 1485 1484 1483
1362 1362 1363 1365 1367 1368 1369 1369 1367 1367 1367 1369 1372 1368 1350 1332 1331 1344 1358 1368 1373 1380 1394 1409 1414 1413 1414 1418 1424 1430 1434 1436 1439 1441 1443 1446 1448 1449 1451 1453 1455 1457 1459 1461 1464 1467 1468 1470 1471 1473 1474 1476 1477 1479 1481 1483 1484 1485 1485 1486 1487 1488 1488 1488 1487 1487 1487 1487 1487 1487 1487 1486 1486 1485 1485 1485 1485 1486 1486 1485 1485 1484 1483 1483 1482
1363 1363 1364 1366 1367 1367 1369 1371 1371 1370 1370 1371 1373 1371 1363 1358 1359 1363 1369 1375 1381 1388 1398 1407 1410 1411 1414 1419 1424 1428 1432 1435 1438 1441 1444 1446 1448 1450 1451 1453 1455 1457 1458 1461 1463 1465 1466 1468 1470 1471 1473 1474 1476 1477 1479 1480 1481 1482 1484 1485 1486 1486 1486 1486 1485 1485 1485 1485 1484 1484 1484 1483 1483 1482 1483 1483 1484 1484 1484 1483 1483 1482 1482 1481 1480
1366 1366 1367 1367 1368 1369 1371 1374 1376 1375 1373 1372 1374 1375 1374 1374 1377 1379 1382 1384 1387 1393 1400 1406 1409 1412 1415 1419 1424 1428 1431 1435 1438 1441 1443 1446 1448 1450 1451 1453 1455 1457 1458 1460 1462 1464 1465 1466 1468 1470 1471 1473 1474 1476 1477 1478 1480 1481 1482 1484 1484 1484 1484 1484 1483 1483 1482 1482 1481 1481 1481 1481 1480 1480 1480 1481 1482 1482 1482 1482 1481 1481 1480 1479 1478
1370 1370 1370 1369 1369 1371 1374 1378 1381 1380 1376 1373 1375 1378 1380 1382 1385 1387 1389 1390 1393 1397 1403 1407 1410 1413 1416 1419 1423 1427 1430 1435 1438 1441 1443 1445 1447 1449 1451 1452 1454 1456 1458 1460 1461 1462 1464 1465 1467 1468 1470 1471 1472 1474 1475 1477 1478 1480 1481 1482 1482 1482 1482 1481 1481 1480 1480 1479 1479 1479 1479 1479 1478 1478 1478 1479 1480 1480 1480 1480 1479 1479 1478 1477 1476
1371 1370 1371 1372 1372 1374 1378 1382 1386 1385 1381 1378 1379 1381 1383 1386 1389 1391 1394 1395 1398 1402 1406 1409 1412 1415 1417 1420 1424 1427 1431 1435 1438 1440 1442 1444 1446 1448 1450 1451 1453 1455 1457 1459 1460 1461 1462 1464 1466 1467 1468 1469 1471 1472 1474 1475 1477 1479 1480 1481 1481 1481 1480 1479 1478 1478 1477 1476 1476 1477 1476 1476 1476 1476 1476 1477 1478 1478 1478 1478 1478 1477 1476 1475 1474
1373 1373 1373 1375 1377 1379 1382 1385 1388 1388 1386 1385 1385 1386 1388 1390 1392 1395 1397 1399 1401 1404 1408 1411 1414 1416 1419 1422 1425 1428 1431 1435 1437 1439 1441 1444 1446 1448 1449 1450 1452 1454 1455 1457 1458 1460 1461 1463 1464 1465 1467 1468 1469 1471 1472 1475 1477 1479 1480 1480 1480 1479 1478 1477 1476 1475 1474 1474 1474 1474 1474 1474 1473 1474 1474 1475 1475 1476 1476 1476 1476 1475 1474 1473 1472
1380 1379 1379 1380 1382 1384 1386 1387 1388 1389 1389 1389 1390 1391 1392 1393 1395 1397 1400 1402 1404 1406 1409 1411 1414 1416 1419 1422 1425 1428 1430 1433 1436 1438 1441 1443 1446 1447 1448 1450 1451 1453 1454 1456 1457 1458 1460 1461 1463 1464 1465 1466 1467 1469 1471 1474 1476 1478 1479 1478 1478 1477 1476 1475 1474 1473 1472 1471 1472 1472 1471 1471 1471 1471 1472 1472 1473 1474 1474 1474 1474 1473 1472 1471 1470
1387 1386 1386 1386 1386 1387 1388 1389 1390 1391 1392 1392 1393 1394 1395 1395 1397 1399 1401 1403 1406 1408 1410 1412 1414 1417 1420 1422 1425 1427 1429 1432 1435 1438 1440 1443 1444 1446 1447 1449 1450 1452 1453 1455 1456 1457 1459 1460 1461 1462 1463 1464 1466 1468 1471 1474 1475 1476 1477 1476 1476 1475 1474 1473 1471 1470 1469 1469 1469 1469 1469 1468 1468 1469 1469 1470 1471 1472 1472 1472 1472 1471 1471 1470 1469
1391 1390 1390 1390 1390 1390 1391 1392 1392 1393 1394 1394 1395 1396 1397 1398 1399 1401 1403 1405 1407 1409 1412 1414 1416 1418 1420 1422 1424 1426 1428 1431 1434 1437 1439 1441 1443 1444 1446 1448 1449 1451 1452 1454 1455 1456 1458 1459 1460 1461 1462 1463 1465 1468 1471 1473 1474 1475 1475 1474 1474 1473 1472 1470 1469 1468 1467 1467 1466 1466 1466 1466 1466 1466 1467 1468 1469 1469 1470 1470 1470 1469 1469 1468 1467
1393 1393 1392 1392 1393 1393 1394 1394 1394 1395 1395 1396 1397 1398 1399 1400 1401 1403 1404 1406 1408 1410 1412 1415 1417 1420 1422 1423 1425 1426 1429 1431 1434 1436 1438 1440 1442 1444 1445 1447 1448 1450 1451 1453 1454 1455 1456 1457 1458 1459 1460 1462 1464 1467 1470 1472 1472 1473 1473 1472 1471 1470 1469 1468 1466 1465 1464 1464 1464 1464 1464 1464 1464 1464 1465 1465 1466 1467 1468 1468 1468 1467 1467 1466 1465
1395 1395 1395 1395 1395 1395 1396 1396 1396 1397 1397 1398 1399 1400 1401 1402 1403 1405 1407 1408 1410 1412 1414 1416 1418 1421 1422 1424 1425 1427 1429 1431 1433 1435 1437 1439 1441 1443 1444 1446 1447 1449 1450 1451 1453 1454 1454 1455 1456 1457 1459 1461 1464 1467 1469 1470 1471 1471 1471 1470 1469 1468 1467 1465 1464 1463 1462 1461 1461 1461 1461 1461 1461 1462 1462 1463 1464 1465 1466 1466 1466 1465 1465 1464 1464
1394 1395 1395 1395 1396 1397 1397 1397 1397 1398 1399 1400 1401 1402 1403 1404 1405 1407 1408 1410 1411 1413 1415 1417 1419 1421 1422 1424 1425 1427 1429 1431 1433 1435 1437 1438 1440 1442 1443 1445 1446 1448 1449 1450 1451 1452 1453 1454 1455 1456 1458 1461 1464 1466 1468 1468 1469 1469 1469 1468 1467 1466 1464 1463 1461 1460 1459 1458 1458 1458 1458 1458 1458 1459 1460 1461 1462 1463 1463 1464 1464 1463 1463 1462 1462
1393 1394 1395 1395 1396 1397 1398 1398 1398 1398 1399 1400 1401 1403 1404 1405 1406 1408 1409 1411 1412 1414 1416 1417 1419 1420 1422 1424 1426 1427 1430 1431 1433 1435 1436 1438 1439 1441 1442 1443 1445 1446 1447 1448 1450 1451 1452 1453 1454 1456 1458 1461 1463 1465 1466 1467 1467 1467 1466 1466 1465 1464 1462 1461 1459 1457 1456 1455 1455 1455 1455 1455 1456 1457 1457 1458 1459 1460 1461 1461 1462 1461 1461 1461 1460
1394 1395 1396 1396 1396 1397 1398 1398 1398 1399 1399 1400 1402 1403 1403 1404 1405 1407 1409 1411 1413 1415 1416 1418 1419 1421 1423 1424 1426 1428 1429 1431 1433 1434 1436 1437 1438 1440 1441 1442 1444 1445 1446 1447 1448 1449 1451 1452 1453 1455 1458 1460 1462 1464 1464 1465 1465 1465 1464 1464 1463 1461 1460 1459 1457 1455 1454 1453 1453 1453 1453 1453 1454 1455 1455 1456 1457 1458 1459 1459 1459 1459 1459 1459 1459
1396 1396 1397 1397 1396 1396 1397 1397 1398 1398 1399 1401 1402 1404 1405 1405 1407 1408 1410 1412 1413 1415 1417 1418 1420 1421 1423 1424 1425 1427 1429 1430 1432 1433 1435 1436 1438 1439 1440 1441 1443 1444 1445 1446 1447 1448 1450 1451 1453 1455 1457 1459 1460 1462 1462 1462 1462 1462 1462 1461 1461 1460 1458 1457 1455 1453 1452 1452 1451 1451 1451 1452 1452 1453 1454 1454 1455 1456 1457 1457 1457 1457 1457 1457 1457
1397 1397 1398 1398 1397 1397 1397 1398 1399 1399 1400 1402 1404 1407 1408 1409 1409 1410 1411 1413 1414 1416 1417 1419 1420 1422 1423 1424 1425 1427 1428 1430 1431 1433 1434 1435 1437 1438 1439 1440 1441 1442 1443 1444 1445 1447 1449 1450 1452 1454 1456 1457 1458 1459 1460 1460 1461 1460 1460 1459 1459 1458 1456 1455 1453 1452 1451 1450 1450 1450 1450 1450 1451 1451 1452 1453 1453 1454 1455 1455 1455 1455 1455 1455 1455